Terug naar catalogus

STARLINK-31037

ActiefCommunicatieVLEO
NORAD 58536·PAYLOAD·🇺🇸 United States

Gelanceerd Dec 8, 2023 vanaf Vandenberg Space Force Base

Loading…

Volgende Passages (komende 24 uur)

TLE

VersSource: CelesTrak SupGP

Epoch: Sep 15, 2026, 01:52 UTC

1 58536C 23192F   26258.07826389 -.00009957  00000+0 -29413-3 0  2581
2 58536  53.1580 259.2893 0001210  90.6049 317.7296 15.34401946    14

Volg STARLINK-31037 in realtime met AllMySat

Download on the App Store